M I D A S
Marine Information and Data Acquisition System
Tripno 1360 of the Zeeleeuw from 2007-07-16 04:15:27 to 2007-07-16 19:40:56
Back to CruiseResearch ActivitiesStationsMapUnderway DataData graphs

EquipmentUnitsComment
TimeDGPSUTC
LatitudeDGPSDM.mWGS84
LongitudeDGPSDM.mWGS84
TemperatureSBE03/SBE38deg celciusITS90
ConductivitySBE21S/mITS90
SalinitySBE21 Practical Salinity Units
ChlorophylAChelsea fluorimeterg/lCalibrated in Aceton
Missing or incorrect values are displayed as -999
Sea surface data collected by the RV Zeeleeuw from 2007-07-16 04:17:10 to 2007-07-16 19:54:22
                                                                                    Next 1000 lines
Time Latitude Longitude Temperature Conductivity Salinity ChlorophylA
2007-07-16 04:17:20 51°13.598 2°56.092 -999 -999 -999 -999
2007-07-16 04:17:25 51°13.598 2°56.09 -999 -999 -999 -999
2007-07-16 04:17:30 51°13.599 2°56.087 -999 -999 -999 -999
2007-07-16 04:17:35 51°13.599 2°56.084 -999 -999 -999 -999
2007-07-16 04:17:40 51°13.6 2°56.08 -999 -999 -999 -999
2007-07-16 04:17:45 51°13.601 2°56.076 -999 -999 -999 -999
2007-07-16 04:17:51 51°13.603 2°56.07 -999 -999 -999 -999
2007-07-16 04:17:56 51°13.604 2°56.065 -999 -999 -999 -999
2007-07-16 04:18:01 51°13.606 2°56.059 -999 -999 -999 -999
2007-07-16 04:18:05 51°13.607 2°56.055 -999 -999 -999 -999
2007-07-16 04:18:10 51°13.609 2°56.048 -999 -999 -999 -999
2007-07-16 04:18:16 51°13.611 2°56.041 -999 -999 -999 -999
2007-07-16 04:18:21 51°13.613 2°56.034 -999 -999 -999 -999
2007-07-16 04:18:26 51°13.615 2°56.027 -999 -999 -999 -999
2007-07-16 04:18:30 51°13.617 2°56.021 -999 -999 -999 -999
2007-07-16 04:18:35 51°13.619 2°56.013 -999 -999 -999 -999
2007-07-16 04:18:41 51°13.622 2°56.004 -999 -999 -999 -999
2007-07-16 04:18:46 51°13.624 2°55.996 -999 -999 -999 -999
2007-07-16 04:18:50 51°13.626 2°55.99 -999 -999 -999 -999
2007-07-16 04:18:55 51°13.629 2°55.982 -999 -999 -999 -999
2007-07-16 04:19:00 51°13.632 2°55.974 -999 -999 -999 -999
2007-07-16 04:19:06 51°13.635 2°55.964 -999 -999 -999 -999
2007-07-16 04:19:11 51°13.638 2°55.955 -999 -999 -999 -999
2007-07-16 04:19:16 51°13.641 2°55.947 -999 -999 -999 -999
2007-07-16 04:19:20 51°13.643 2°55.94 -999 -999 -999 -999
2007-07-16 04:19:25 51°13.646 2°55.931 -999 -999 -999 -999
2007-07-16 04:19:31 51°13.65 2°55.921 -999 -999 -999 -999
2007-07-16 04:19:36 51°13.653 2°55.912 -999 -999 -999 -999
2007-07-16 04:19:41 51°13.656 2°55.904 -999 -999 -999 -999
2007-07-16 04:19:45 51°13.659 2°55.896 -999 -999 -999 -999
2007-07-16 04:19:51 51°13.663 2°55.886 -999 -999 -999 -999
2007-07-16 04:19:56 51°13.667 2°55.878 -999 -999 -999 -999
2007-07-16 04:20:01 51°13.671 2°55.869 -999 -999 -999 -999
2007-07-16 04:20:05 51°13.674 2°55.863 -999 -999 -999 -999
2007-07-16 04:20:10 51°13.677 2°55.855 -999 -999 -999 -999
2007-07-16 04:20:16 51°13.682 2°55.845 -999 -999 -999 -999
2007-07-16 04:20:21 51°13.686 2°55.837 -999 -999 -999 -999
2007-07-16 04:20:26 51°13.689 2°55.828 -999 -999 -999 -999
2007-07-16 04:20:30 51°13.692 2°55.821 -999 -999 -999 -999
2007-07-16 04:20:36 51°13.697 2°55.811 -999 -999 -999 -999
2007-07-16 04:20:41 51°13.701 2°55.803 -999 -999 -999 -999
2007-07-16 04:20:46 51°13.704 2°55.795 -999 -999 -999 -999
2007-07-16 04:20:50 51°13.706 2°55.789 -999 -999 -999 -999
2007-07-16 04:20:55 51°13.709 2°55.781 -999 -999 -999 -999
2007-07-16 04:21:01 51°13.713 2°55.772 -999 -999 -999 -999
2007-07-16 04:21:06 51°13.715 2°55.764 -999 -999 -999 -999
2007-07-16 04:21:10 51°13.718 2°55.758 -999 -999 -999 -999
2007-07-16 04:21:15 51°13.72 2°55.75 -999 -999 -999 -999
2007-07-16 04:21:21 51°13.723 2°55.742 -999 -999 -999 -999
2007-07-16 04:21:26 51°13.725 2°55.735 -999 -999 -999 -999
2007-07-16 04:21:30 51°13.726 2°55.73 -999 -999 -999 -999
2007-07-16 04:21:36 51°13.728 2°55.724 -999 -999 -999 -999
2007-07-16 04:21:40 51°13.728 2°55.72 -999 -999 -999 -999
2007-07-16 04:21:46 51°13.73 2°55.716 -999 -999 -999 -999
2007-07-16 04:21:50 51°13.73 2°55.714 -999 -999 -999 -999
2007-07-16 04:21:55 51°13.731 2°55.712 -999 -999 -999 -999
2007-07-16 04:22:00 51°13.731 2°55.712 -999 -999 -999 -999
2007-07-16 04:22:05 51°13.732 2°55.712 -999 -999 -999 -999
2007-07-16 04:22:10 51°13.732 2°55.713 -999 -999 -999 -999
2007-07-16 04:22:15 51°13.733 2°55.715 -999 -999 -999 -999
2007-07-16 04:22:20 51°13.734 2°55.717 -999 -999 -999 -999
2007-07-16 04:22:25 51°13.736 2°55.72 -999 -999 -999 -999
2007-07-16 04:22:30 51°13.737 2°55.723 -999 -999 -999 -999
2007-07-16 04:22:35 51°13.739 2°55.726 -999 -999 -999 -999
2007-07-16 04:22:40 51°13.741 2°55.728 -999 -999 -999 -999
2007-07-16 04:22:45 51°13.743 2°55.73 -999 -999 -999 -999
2007-07-16 04:22:50 51°13.744 2°55.731 -999 -999 -999 -999
2007-07-16 04:22:55 51°13.745 2°55.731 -999 -999 -999 -999
2007-07-16 04:23:00 51°13.744 2°55.731 -999 -999 -999 -999
2007-07-16 04:23:06 51°13.743 2°55.73 -999 -999 -999 -999
2007-07-16 04:23:10 51°13.742 2°55.729 -999 -999 -999 -999
2007-07-16 04:23:15 51°13.741 2°55.728 -999 -999 -999 -999
2007-07-16 04:23:20 51°13.738 2°55.726 -999 -999 -999 -999
2007-07-16 04:23:26 51°13.735 2°55.723 -999 -999 -999 -999
2007-07-16 04:23:30 51°13.733 2°55.721 -999 -999 -999 -999
2007-07-16 04:23:35 51°13.731 2°55.719 -999 -999 -999 -999
2007-07-16 04:23:40 51°13.729 2°55.717 -999 -999 -999 -999
2007-07-16 04:23:46 51°13.728 2°55.716 -999 -999 -999 -999
2007-07-16 04:23:51 51°13.728 2°55.715 -999 -999 -999 -999
2007-07-16 04:23:56 51°13.728 2°55.715 -999 -999 -999 -999
2007-07-16 04:24:00 51°13.729 2°55.715 -999 -999 -999 -999
2007-07-16 04:24:05 51°13.73 2°55.716 -999 -999 -999 -999
2007-07-16 04:24:11 51°13.733 2°55.715 -999 -999 -999 -999
2007-07-16 04:24:16 51°13.736 2°55.714 -999 -999 -999 -999
2007-07-16 04:24:21 51°13.739 2°55.713 -999 -999 -999 -999
2007-07-16 04:24:25 51°13.742 2°55.711 -999 -999 -999 -999
2007-07-16 04:24:31 51°13.747 2°55.708 -999 -999 -999 -999
2007-07-16 04:24:36 51°13.751 2°55.705 -999 -999 -999 -999
2007-07-16 04:24:40 51°13.755 2°55.702 -999 -999 -999 -999
2007-07-16 04:24:45 51°13.761 2°55.697 -999 -999 -999 -999
2007-07-16 04:24:50 51°13.767 2°55.692 -999 -999 -999 -999
2007-07-16 04:24:55 51°13.774 2°55.686 -999 -999 -999 -999
2007-07-16 04:25:00 51°13.781 2°55.68 -999 -999 -999 -999
2007-07-16 04:25:06 51°13.791 2°55.672 -999 -999 -999 -999
2007-07-16 04:25:10 51°13.797 2°55.667 -999 -999 -999 -999
2007-07-16 04:25:15 51°13.806 2°55.659 -999 -999 -999 -999
2007-07-16 04:25:20 51°13.815 2°55.652 -999 -999 -999 -999
2007-07-16 04:25:26 51°13.827 2°55.643 -999 -999 -999 -999
2007-07-16 04:25:30 51°13.834 2°55.636 -999 -999 -999 -999
2007-07-16 04:25:35 51°13.844 2°55.628 -999 -999 -999 -999
2007-07-16 04:25:41 51°13.857 2°55.619 -999 -999 -999 -999
2007-07-16 04:25:46 51°13.867 2°55.611 -999 -999 -999 -999
2007-07-16 04:25:50 51°13.876 2°55.604 -999 -999 -999 -999
2007-07-16 04:25:55 51°13.886 2°55.596 -999 -999 -999 -999
2007-07-16 04:26:01 51°13.899 2°55.586 -999 -999 -999 -999
2007-07-16 04:26:06 51°13.91 2°55.578 -999 -999 -999 -999
2007-07-16 04:26:10 51°13.919 2°55.572 -999 -999 -999 -999
2007-07-16 04:26:15 51°13.93 2°55.564 -999 -999 -999 -999
2007-07-16 04:26:20 51°13.941 2°55.556 -999 -999 -999 -999
2007-07-16 04:26:26 51°13.955 2°55.546 -999 -999 -999 -999
2007-07-16 04:26:30 51°13.963 2°55.539 -999 -999 -999 -999
2007-07-16 04:26:35 51°13.974 2°55.532 -999 -999 -999 -999
2007-07-16 04:26:41 51°13.986 2°55.524 -999 -999 -999 -999
2007-07-16 04:26:45 51°13.994 2°55.519 -999 -999 -999 -999
2007-07-16 04:26:50 51°14.004 2°55.512 -999 -999 -999 -999
2007-07-16 04:26:55 51°14.013 2°55.506 -999 -999 -999 -999
2007-07-16 04:27:00 51°14.022 2°55.5 -999 -999 -999 -999
2007-07-16 04:27:05 51°14.031 2°55.494 -999 -999 -999 -999
2007-07-16 04:27:10 51°14.04 2°55.488 -999 -999 -999 -999
2007-07-16 04:27:15 51°14.05 2°55.481 -999 -999 -999 -999
2007-07-16 04:27:21 51°14.062 2°55.473 -999 -999 -999 -999
2007-07-16 04:27:26 51°14.072 2°55.465 -999 -999 -999 -999
2007-07-16 04:27:30 51°14.081 2°55.459 -999 -999 -999 -999
2007-07-16 04:27:35 51°14.092 2°55.451 -999 -999 -999 -999
2007-07-16 04:27:40 51°14.103 2°55.443 -999 -999 -999 -999
2007-07-16 04:27:46 51°14.117 2°55.432 -999 -999 -999 -999
2007-07-16 04:27:50 51°14.127 2°55.425 -999 -999 -999 -999
2007-07-16 04:27:55 51°14.138 2°55.416 -999 -999 -999 -999
2007-07-16 04:28:01 51°14.152 2°55.404 -999 -999 -999 -999
2007-07-16 04:28:06 51°14.164 2°55.394 -999 -999 -999 -999
2007-07-16 04:28:11 51°14.176 2°55.383 -999 -999 -999 -999
2007-07-16 04:28:15 51°14.185 2°55.375 -999 -999 -999 -999
2007-07-16 04:28:20 51°14.197 2°55.363 -999 -999 -999 -999
2007-07-16 04:28:26 51°14.21 2°55.349 -999 -999 -999 -999
2007-07-16 04:28:31 51°14.221 2°55.336 -999 -999 -999 -999
2007-07-16 04:28:35 51°14.23 2°55.325 -999 -999 -999 -999
2007-07-16 04:28:40 51°14.241 2°55.311 -999 -999 -999 -999
2007-07-16 04:28:45 51°14.251 2°55.297 -999 -999 -999 -999
2007-07-16 04:28:50 51°14.261 2°55.281 -999 -999 -999 -999
2007-07-16 04:28:55 51°14.271 2°55.265 -999 -999 -999 -999
2007-07-16 04:29:00 51°14.28 2°55.248 -999 -999 -999 -999
2007-07-16 04:29:05 51°14.29 2°55.231 -999 -999 -999 -999
2007-07-16 04:29:10 51°14.299 2°55.213 -999 -999 -999 -999
2007-07-16 04:29:15 51°14.308 2°55.194 -999 -999 -999 -999
2007-07-16 04:29:20 51°14.317 2°55.176 -999 -999 -999 -999
2007-07-16 04:29:25 51°14.326 2°55.157 -999 -999 -999 -999
2007-07-16 04:29:30 51°14.335 2°55.139 -999 -999 -999 -999
2007-07-16 04:29:35 51°14.344 2°55.121 -999 -999 -999 -999
2007-07-16 04:29:40 51°14.354 2°55.103 -999 -999 -999 -999
2007-07-16 04:29:46 51°14.367 2°55.082 -999 -999 -999 -999
2007-07-16 04:29:50 51°14.376 2°55.068 -999 -999 -999 -999
2007-07-16 04:29:55 51°14.387 2°55.051 -999 -999 -999 -999
2007-07-16 04:30:00 51°14.399 2°55.033 -999 -999 -999 -999
2007-07-16 04:30:06 51°14.414 2°55.012 -999 -999 -999 -999
2007-07-16 04:30:10 51°14.425 2°54.998 -999 -999 -999 -999
2007-07-16 04:30:15 51°14.439 2°54.98 -999 -999 -999 -999
2007-07-16 04:30:21 51°14.456 2°54.961 -999 -999 -999 -999
2007-07-16 04:30:26 51°14.471 2°54.945 -999 -999 -999 -999
2007-07-16 04:30:30 51°14.484 2°54.933 -999 -999 -999 -999
2007-07-16 04:30:35 51°14.5 2°54.919 -999 -999 -999 -999
2007-07-16 04:30:40 51°14.516 2°54.905 -999 -999 -999 -999
2007-07-16 04:30:46 51°14.535 2°54.888 -999 -999 -999 -999
2007-07-16 04:30:50 51°14.548 2°54.877 -999 -999 -999 -999
2007-07-16 04:30:55 51°14.564 2°54.863 -999 -999 -999 -999
2007-07-16 04:31:00 51°14.58 2°54.848 -999 -999 -999 -999
2007-07-16 04:31:06 51°14.599 2°54.83 -999 -999 -999 -999
2007-07-16 04:31:10 51°14.612 2°54.818 -999 -999 -999 -999
2007-07-16 04:31:15 51°14.628 2°54.803 -999 -999 -999 -999
2007-07-16 04:31:20 51°14.644 2°54.787 -999 -999 -999 -999
2007-07-16 04:31:25 51°14.66 2°54.771 -999 -999 -999 -999
2007-07-16 04:31:30 51°14.675 2°54.756 -999 -999 -999 -999
2007-07-16 04:31:35 51°14.691 2°54.74 -999 -999 -999 -999
2007-07-16 04:31:40 51°14.707 2°54.725 -999 -999 -999 -999
2007-07-16 04:31:46 51°14.726 2°54.706 -999 -999 -999 -999
2007-07-16 04:31:50 51°14.739 2°54.694 -999 -999 -999 -999
2007-07-16 04:31:55 51°14.755 2°54.68 -999 -999 -999 -999
2007-07-16 04:32:00 51°14.771 2°54.665 -999 -999 -999 -999
2007-07-16 04:32:06 51°14.79 2°54.648 -999 -999 -999 -999
2007-07-16 04:32:10 51°14.803 2°54.636 -999 -999 -999 -999
2007-07-16 04:32:15 51°14.819 2°54.621 -999 -999 -999 -999
2007-07-16 04:32:21 51°14.838 2°54.603 -999 -999 -999 -999
2007-07-16 04:32:26 51°14.854 2°54.588 -999 -999 -999 -999
2007-07-16 04:32:30 51°14.867 2°54.576 -999 -999 -999 -999
2007-07-16 04:32:35 51°14.882 2°54.561 -999 -999 -999 -999
2007-07-16 04:32:41 51°14.901 2°54.542 -999 -999 -999 -999
2007-07-16 04:32:46 51°14.917 2°54.527 -999 -999 -999 -999
2007-07-16 04:32:50 51°14.93 2°54.515 -999 -999 -999 -999
2007-07-16 04:32:55 51°14.946 2°54.5 -999 -999 -999 -999
2007-07-16 04:33:00 51°14.961 2°54.486 -999 -999 -999 -999
2007-07-16 04:33:06 51°14.981 2°54.469 -999 -999 -999 -999
2007-07-16 04:33:10 51°14.994 2°54.458 -999 -999 -999 -999
2007-07-16 04:33:15 51°15.01 2°54.443 -999 -999 -999 -999
2007-07-16 04:33:20 51°15.026 2°54.429 -999 -999 -999 -999
2007-07-16 04:33:25 51°15.042 2°54.415 -999 -999 -999 -999
2007-07-16 04:33:30 51°15.058 2°54.401 -999 -999 -999 -999
2007-07-16 04:33:35 51°15.074 2°54.387 -999 -999 -999 -999
2007-07-16 04:33:40 51°15.09 2°54.373 -999 -999 -999 -999
2007-07-16 04:33:46 51°15.109 2°54.355 -999 -999 -999 -999
2007-07-16 04:33:50 51°15.122 2°54.344 -999 -999 -999 -999
2007-07-16 04:33:55 51°15.138 2°54.328 -999 -999 -999 -999
2007-07-16 04:34:00 51°15.154 2°54.313 -999 -999 -999 -999
2007-07-16 04:34:06 51°15.173 2°54.295 -999 -999 -999 -999
2007-07-16 04:34:10 51°15.185 2°54.282 -999 -999 -999 -999
2007-07-16 04:34:15 51°15.201 2°54.267 -999 -999 -999 -999
2007-07-16 04:34:21 51°15.22 2°54.249 -999 -999 -999 -999
2007-07-16 04:34:26 51°15.236 2°54.234 -999 -999 -999 -999
2007-07-16 04:34:30 51°15.249 2°54.223 -999 -999 -999 -999
2007-07-16 04:34:35 51°15.265 2°54.208 -999 -999 -999 -999
2007-07-16 04:34:41 51°15.285 2°54.191 -999 -999 -999 -999
2007-07-16 04:34:46 51°15.301 2°54.177 -999 -999 -999 -999
2007-07-16 04:34:50 51°15.314 2°54.165 -999 -999 -999 -999
2007-07-16 04:34:55 51°15.33 2°54.15 -999 -999 -999 -999
2007-07-16 04:35:00 51°15.346 2°54.136 -999 -999 -999 -999
2007-07-16 04:35:06 51°15.365 2°54.118 -999 -999 -999 -999
2007-07-16 04:35:10 51°15.378 2°54.106 -999 -999 -999 -999
2007-07-16 04:35:15 51°15.394 2°54.091 -999 -999 -999 -999
2007-07-16 04:35:20 51°15.41 2°54.077 -999 -999 -999 -999
2007-07-16 04:35:26 51°15.429 2°54.059 -999 -999 -999 -999
2007-07-16 04:35:30 51°15.442 2°54.048 -999 -999 -999 -999
2007-07-16 04:35:35 51°15.458 2°54.033 -999 -999 -999 -999
2007-07-16 04:35:40 51°15.474 2°54.019 -999 -999 -999 -999
2007-07-16 04:35:45 51°15.49 2°54.004 -999 -999 -999 -999
2007-07-16 04:35:50 51°15.506 2°53.99 -999 -999 -999 -999
2007-07-16 04:35:55 51°15.522 2°53.976 -999 -999 -999 -999
2007-07-16 04:36:00 51°15.537 2°53.961 -999 -999 -999 -999
2007-07-16 04:36:06 51°15.556 2°53.944 -999 -999 -999 -999
2007-07-16 04:36:10 51°15.569 2°53.933 -999 -999 -999 -999
2007-07-16 04:36:15 51°15.584 2°53.918 -999 -999 -999 -999
2007-07-16 04:36:20 51°15.6 2°53.904 -999 -999 -999 -999
2007-07-16 04:36:25 51°15.616 2°53.89 -999 -999 -999 -999
2007-07-16 04:36:30 51°15.632 2°53.876 -999 -999 -999 -999
2007-07-16 04:36:35 51°15.647 2°53.861 -999 -999 -999 -999
2007-07-16 04:36:41 51°15.666 2°53.844 -999 -999 -999 -999
2007-07-16 04:36:46 51°15.682 2°53.83 -999 -999 -999 -999
2007-07-16 04:36:50 51°15.694 2°53.819 -999 -999 -999 -999
2007-07-16 04:36:55 51°15.71 2°53.805 -999 -999 -999 -999
2007-07-16 04:37:01 51°15.729 2°53.788 -999 -999 -999 -999
2007-07-16 04:37:06 51°15.745 2°53.774 -999 -999 -999 -999
2007-07-16 04:37:10 51°15.757 2°53.763 -999 -999 -999 -999
2007-07-16 04:37:15 51°15.773 2°53.748 -999 -999 -999 -999
2007-07-16 04:37:20 51°15.788 2°53.734 -999 -999 -999 -999
2007-07-16 04:37:26 51°15.807 2°53.716 -999 -999 -999 -999
2007-07-16 04:37:30 51°15.819 2°53.705 -999 -999 -999 -999
2007-07-16 04:37:35 51°15.835 2°53.69 -999 -999 -999 -999
2007-07-16 04:37:40 51°15.851 2°53.676 -999 -999 -999 -999
2007-07-16 04:37:46 51°15.869 2°53.659 -999 -999 -999 -999
2007-07-16 04:37:50 51°15.882 2°53.648 -999 -999 -999 -999
2007-07-16 04:37:55 51°15.897 2°53.633 -999 -999 -999 -999
2007-07-16 04:38:00 51°15.913 2°53.619 -999 -999 -999 -999
2007-07-16 04:38:06 51°15.932 2°53.603 -999 -999 -999 -999
2007-07-16 04:38:10 51°15.945 2°53.591 -999 -999 -999 -999
2007-07-16 04:38:15 51°15.961 2°53.577 -999 -999 -999 -999
2007-07-16 04:38:20 51°15.977 2°53.563 -999 -999 -999 -999
2007-07-16 04:38:25 51°15.992 2°53.549 -999 -999 -999 -999
2007-07-16 04:38:30 51°16.008 2°53.535 -999 -999 -999 -999
2007-07-16 04:38:35 51°16.024 2°53.52 -999 -999 -999 -999
2007-07-16 04:38:41 51°16.043 2°53.503 -999 -999 -999 -999
2007-07-16 04:38:46 51°16.059 2°53.489 -999 -999 -999 -999
2007-07-16 04:38:50 51°16.071 2°53.478 -999 -999 -999 -999
2007-07-16 04:38:55 51°16.087 2°53.464 -999 -999 -999 -999
2007-07-16 04:39:01 51°16.106 2°53.447 -999 -999 -999 -999
2007-07-16 04:39:06 51°16.122 2°53.433 -999 -999 -999 -999
2007-07-16 04:39:10 51°16.135 2°53.422 -999 -999 -999 -999
2007-07-16 04:39:15 51°16.151 2°53.408 -999 -999 -999 -999
2007-07-16 04:39:20 51°16.167 2°53.394 -999 -999 -999 -999
2007-07-16 04:39:26 51°16.186 2°53.377 -999 -999 -999 -999
2007-07-16 04:39:30 51°16.199 2°53.366 -999 -999 -999 -999
2007-07-16 04:39:35 51°16.215 2°53.352 -999 -999 -999 -999
2007-07-16 04:39:40 51°16.231 2°53.338 -999 -999 -999 -999
2007-07-16 04:39:46 51°16.25 2°53.321 -999 -999 -999 -999
2007-07-16 04:39:50 51°16.263 2°53.31 -999 -999 -999 -999
2007-07-16 04:39:55 51°16.279 2°53.296 -999 -999 -999 -999
2007-07-16 04:40:00 51°16.295 2°53.282 -999 -999 -999 -999
2007-07-16 04:40:05 51°16.311 2°53.268 -999 -999 -999 -999
2007-07-16 04:40:10 51°16.327 2°53.255 -999 -999 -999 -999
2007-07-16 04:40:15 51°16.343 2°53.242 -999 -999 -999 -999
2007-07-16 04:40:20 51°16.36 2°53.229 -999 -999 -999 -999
2007-07-16 04:40:25 51°16.376 2°53.217 -999 -999 -999 -999
2007-07-16 04:40:30 51°16.393 2°53.205 -999 -999 -999 -999
2007-07-16 04:40:35 51°16.409 2°53.193 -999 -999 -999 -999
2007-07-16 04:40:40 51°16.426 2°53.181 -999 -999 -999 -999
2007-07-16 04:40:45 51°16.443 2°53.169 -999 -999 -999 -999
2007-07-16 04:40:50 51°16.459 2°53.157 -999 -999 -999 -999
2007-07-16 04:40:55 51°16.476 2°53.145 -999 -999 -999 -999
2007-07-16 04:41:01 51°16.495 2°53.131 -999 -999 -999 -999
2007-07-16 04:41:06 51°16.512 2°53.119 -999 -999 -999 -999
2007-07-16 04:41:10 51°16.525 2°53.109 -999 -999 -999 -999
2007-07-16 04:41:15 51°16.542 2°53.097 -999 -999 -999 -999
2007-07-16 04:41:20 51°16.558 2°53.085 -999 -999 -999 -999
2007-07-16 04:41:26 51°16.578 2°53.07 -999 -999 -999 -999
2007-07-16 04:41:30 51°16.591 2°53.06 -999 -999 -999 -999
2007-07-16 04:41:35 51°16.607 2°53.047 -999 -999 -999 -999
2007-07-16 04:41:41 51°16.627 2°53.033 -999 -999 -999 -999
2007-07-16 04:41:46 51°16.644 2°53.021 -999 -999 -999 -999
2007-07-16 04:41:50 51°16.657 2°53.012 -999 -999 -999 -999
2007-07-16 04:41:55 51°16.674 2°53 -999 -999 -999 -999
2007-07-16 04:42:00 51°16.69 2°52.988 -999 -999 -999 -999
2007-07-16 04:42:06 51°16.71 2°52.973 -999 -999 -999 -999
2007-07-16 04:42:10 51°16.724 2°52.964 -999 -999 -999 -999
2007-07-16 04:42:15 51°16.74 2°52.952 -999 -999 -999 -999
2007-07-16 04:42:20 51°16.757 2°52.94 -999 -999 -999 -999
2007-07-16 04:42:25 51°16.773 2°52.928 -999 -999 -999 -999
2007-07-16 04:42:30 51°16.79 2°52.916 -999 -999 -999 -999
2007-07-16 04:42:35 51°16.806 2°52.904 -999 -999 -999 -999
2007-07-16 04:42:40 51°16.822 2°52.892 -999 -999 -999 -999
2007-07-16 04:42:45 51°16.839 2°52.88 -999 -999 -999 -999
2007-07-16 04:42:50 51°16.855 2°52.868 -999 -999 -999 -999
2007-07-16 04:42:55 51°16.871 2°52.856 -999 -999 -999 -999
2007-07-16 04:43:01 51°16.891 2°52.84 -999 -999 -999 -999
2007-07-16 04:43:06 51°16.907 2°52.828 -999 -999 -999 -999
2007-07-16 04:43:10 51°16.921 2°52.818 -999 -999 -999 -999
2007-07-16 04:43:15 51°16.937 2°52.806 -999 -999 -999 -999
2007-07-16 04:43:20 51°16.954 2°52.794 -999 -999 -999 -999
2007-07-16 04:43:26 51°16.974 2°52.779 -999 -999 -999 -999
2007-07-16 04:43:30 51°16.987 2°52.77 -999 -999 -999 -999
2007-07-16 04:43:35 51°17.004 2°52.758 -999 -999 -999 -999
2007-07-16 04:43:41 51°17.024 2°52.743 -999 -999 -999 -999
2007-07-16 04:43:46 51°17.04 2°52.73 -999 -999 -999 -999
2007-07-16 04:43:50 51°17.054 2°52.721 -999 -999 -999 -999
2007-07-16 04:43:55 51°17.07 2°52.708 -999 -999 -999 -999
2007-07-16 04:44:01 51°17.09 2°52.694 -999 -999 -999 -999
2007-07-16 04:44:06 51°17.107 2°52.681 -999 -999 -999 -999
2007-07-16 04:44:10 51°17.121 2°52.672 -999 -999 -999 -999
2007-07-16 04:44:15 51°17.137 2°52.66 -999 -999 -999 -999
2007-07-16 04:44:20 51°17.154 2°52.649 -999 -999 -999 -999
2007-07-16 04:44:25 51°17.171 2°52.637 -999 -999 -999 -999
2007-07-16 04:44:30 51°17.187 2°52.625 -999 -999 -999 -999
2007-07-16 04:44:35 51°17.204 2°52.613 -999 -999 -999 -999
2007-07-16 04:44:40 51°17.22 2°52.6 -999 -999 -999 -999
2007-07-16 04:44:45 51°17.237 2°52.588 -999 -999 -999 -999
2007-07-16 04:44:50 51°17.254 2°52.575 -999 -999 -999 -999
2007-07-16 04:44:55 51°17.27 2°52.563 -999 -999 -999 -999
2007-07-16 04:45:00 51°17.287 2°52.551 -999 -999 -999 -999
2007-07-16 04:45:05 51°17.304 2°52.538 -999 -999 -999 -999
2007-07-16 04:45:10 51°17.32 2°52.526 -999 -999 -999 -999
2007-07-16 04:45:15 51°17.337 2°52.514 -999 -999 -999 -999
2007-07-16 04:45:20 51°17.354 2°52.502 -999 -999 -999 -999
2007-07-16 04:45:26 51°17.374 2°52.488 -999 -999 -999 -999
2007-07-16 04:45:30 51°17.387 2°52.478 -999 -999 -999 -999
2007-07-16 04:45:35 51°17.404 2°52.466 -999 -999 -999 -999
2007-07-16 04:45:40 51°17.421 2°52.453 -999 -999 -999 -999
2007-07-16 04:45:46 51°17.441 2°52.438 -999 -999 -999 -999
2007-07-16 04:45:50 51°17.454 2°52.428 -999 -999 -999 -999
2007-07-16 04:45:55 51°17.47 2°52.416 -999 -999 -999 -999
2007-07-16 04:46:01 51°17.49 2°52.401 -999 -999 -999 -999
2007-07-16 04:46:06 51°17.507 2°52.388 -999 -999 -999 -999
2007-07-16 04:46:10 51°17.52 2°52.378 -999 -999 -999 -999
2007-07-16 04:46:15 51°17.536 2°52.366 -999 -999 -999 -999
2007-07-16 04:46:20 51°17.553 2°52.353 -999 -999 -999 -999
2007-07-16 04:46:25 51°17.57 2°52.341 -999 -999 -999 -999
2007-07-16 04:46:30 51°17.586 2°52.329 -999 -999 -999 -999
2007-07-16 04:46:34 51°17.6 2°52.319 -999 -999 -999 -999
2007-07-16 04:46:39 51°17.616 2°52.306 -999 -999 -999 -999
2007-07-16 04:46:44 51°17.633 2°52.294 -999 -999 -999 -999
2007-07-16 04:46:49 51°17.649 2°52.282 -999 -999 -999 -999
2007-07-16 04:46:54 51°17.666 2°52.27 -999 -999 -999 -999
2007-07-16 04:46:58 51°17.679 2°52.26 -999 -999 -999 -999
2007-07-16 04:47:03 51°17.696 2°52.248 -999 -999 -999 -999
2007-07-16 04:47:08 51°17.713 2°52.236 -999 -999 -999 -999
2007-07-16 04:47:13 51°17.729 2°52.223 -999 -999 -999 -999
2007-07-16 04:47:18 51°17.746 2°52.211 -999 -999 -999 -999
2007-07-16 04:47:23 51°17.762 2°52.198 -999 -999 -999 -999
2007-07-16 04:47:27 51°17.776 2°52.188 -999 -999 -999 -999
2007-07-16 04:47:33 51°17.796 2°52.173 -999 -999 -999 -999
2007-07-16 04:47:38 51°17.812 2°52.161 -999 -999 -999 -999
2007-07-16 04:47:42 51°17.826 2°52.151 -999 -999 -999 -999
2007-07-16 04:47:47 51°17.842 2°52.138 -999 -999 -999 -999
2007-07-16 04:47:52 51°17.859 2°52.126 -999 -999 -999 -999
2007-07-16 04:47:57 51°17.875 2°52.113 -999 -999 -999 -999
2007-07-16 04:48:02 51°17.892 2°52.101 -999 -999 -999 -999
2007-07-16 04:48:07 51°17.908 2°52.088 -999 -999 -999 -999
2007-07-16 04:48:12 51°17.925 2°52.076 -999 -999 -999 -999
2007-07-16 04:48:17 51°17.942 2°52.064 -999 -999 -999 -999
2007-07-16 04:48:22 51°17.958 2°52.051 -999 -999 -999 -999
2007-07-16 04:48:27 51°17.975 2°52.039 -999 -999 -999 -999
2007-07-16 04:48:32 51°17.992 2°52.026 -999 -999 -999 -999
2007-07-16 04:48:37 51°18.008 2°52.014 -999 -999 -999 -999
2007-07-16 04:48:42 51°18.025 2°52.002 -999 -999 -999 -999
2007-07-16 04:48:47 51°18.042 2°51.99 -999 -999 -999 -999
2007-07-16 04:48:52 51°18.059 2°51.977 -999 -999 -999 -999
2007-07-16 04:48:57 51°18.075 2°51.965 -999 -999 -999 -999
2007-07-16 04:49:02 51°18.092 2°51.953 -999 -999 -999 -999
2007-07-16 04:49:07 51°18.109 2°51.94 -999 -999 -999 -999
2007-07-16 04:49:12 51°18.125 2°51.928 -999 -999 -999 -999
2007-07-16 04:49:17 51°18.142 2°51.915 -999 -999 -999 -999
2007-07-16 04:49:22 51°18.159 2°51.903 -999 -999 -999 -999
2007-07-16 04:49:27 51°18.176 2°51.891 -999 -999 -999 -999
2007-07-16 04:49:32 51°18.192 2°51.879 -999 -999 -999 -999
2007-07-16 04:49:37 51°18.209 2°51.867 -999 -999 -999 -999
2007-07-16 04:49:42 51°18.226 2°51.855 -999 -999 -999 -999
2007-07-16 04:49:47 51°18.243 2°51.843 -999 -999 -999 -999
2007-07-16 04:49:52 51°18.26 2°51.831 -999 -999 -999 -999
2007-07-16 04:49:57 51°18.276 2°51.818 -999 -999 -999 -999
2007-07-16 04:50:02 51°18.293 2°51.806 -999 -999 -999 -999
2007-07-16 04:50:07 51°18.31 2°51.793 -999 -999 -999 -999
2007-07-16 04:50:12 51°18.327 2°51.781 -999 -999 -999 -999
2007-07-16 04:50:17 51°18.343 2°51.769 -999 -999 -999 -999
2007-07-16 04:50:22 51°18.36 2°51.756 -999 -999 -999 -999
2007-07-16 04:50:27 51°18.377 2°51.744 -999 -999 -999 -999
2007-07-16 04:50:32 51°18.394 2°51.732 -999 -999 -999 -999
2007-07-16 04:50:37 51°18.411 2°51.72 -999 -999 -999 -999
2007-07-16 04:50:42 51°18.428 2°51.708 -999 -999 -999 -999
2007-07-16 04:50:47 51°18.445 2°51.696 -999 -999 -999 -999
2007-07-16 04:50:52 51°18.462 2°51.683 -999 -999 -999 -999
2007-07-16 04:50:57 51°18.478 2°51.671 -999 -999 -999 -999
2007-07-16 04:51:02 51°18.495 2°51.659 -999 -999 -999 -999
2007-07-16 04:51:07 51°18.512 2°51.647 -999 -999 -999 -999
2007-07-16 04:51:12 51°18.529 2°51.635 -999 -999 -999 -999
2007-07-16 04:51:17 51°18.546 2°51.623 -999 -999 -999 -999
2007-07-16 04:51:22 51°18.563 2°51.611 -999 -999 -999 -999
2007-07-16 04:51:27 51°18.58 2°51.598 -999 -999 -999 -999
2007-07-16 04:51:32 51°18.597 2°51.586 -999 -999 -999 -999
2007-07-16 04:51:37 51°18.613 2°51.573 -999 -999 -999 -999
2007-07-16 04:51:42 51°18.63 2°51.561 -999 -999 -999 -999
2007-07-16 04:51:47 51°18.647 2°51.549 -999 -999 -999 -999
2007-07-16 04:51:52 51°18.664 2°51.537 -999 -999 -999 -999
2007-07-16 04:51:57 51°18.681 2°51.525 -999 -999 -999 -999
2007-07-16 04:52:02 51°18.698 2°51.513 -999 -999 -999 -999
2007-07-16 04:52:07 51°18.714 2°51.5 -999 -999 -999 -999
2007-07-16 04:52:12 51°18.731 2°51.488 -999 -999 -999 -999
2007-07-16 04:52:17 51°18.748 2°51.476 -999 -999 -999 -999
2007-07-16 04:52:22 51°18.765 2°51.464 -999 -999 -999 -999
2007-07-16 04:52:27 51°18.782 2°51.452 -999 -999 -999 -999
2007-07-16 04:52:32 51°18.798 2°51.44 -999 -999 -999 -999
2007-07-16 04:52:37 51°18.816 2°51.428 -999 -999 -999 -999
2007-07-16 04:52:42 51°18.833 2°51.419 -999 -999 -999 -999
2007-07-16 04:52:47 51°18.85 2°51.409 -999 -999 -999 -999
2007-07-16 04:52:52 51°18.868 2°51.4 -999 -999 -999 -999
2007-07-16 04:52:57 51°18.886 2°51.392 -999 -999 -999 -999
2007-07-16 04:53:02 51°18.904 2°51.384 -999 -999 -999 -999
2007-07-16 04:53:07 51°18.922 2°51.376 -999 -999 -999 -999
2007-07-16 04:53:12 51°18.939 2°51.369 -999 -999 -999 -999
2007-07-16 04:53:17 51°18.957 2°51.361 -999 -999 -999 -999
2007-07-16 04:53:22 51°18.976 2°51.353 -999 -999 -999 -999
2007-07-16 04:53:27 51°18.994 2°51.344 -999 -999 -999 -999
2007-07-16 04:53:32 51°19.012 2°51.336 -999 -999 -999 -999
2007-07-16 04:53:37 51°19.03 2°51.329 -999 -999 -999 -999
2007-07-16 04:53:42 51°19.048 2°51.322 -999 -999 -999 -999
2007-07-16 04:53:47 51°19.065 2°51.314 -999 -999 -999 -999
2007-07-16 04:53:52 51°19.083 2°51.306 -999 -999 -999 -999
2007-07-16 04:53:57 51°19.101 2°51.298 -999 -999 -999 -999
2007-07-16 04:54:02 51°19.119 2°51.29 -999 -999 -999 -999
2007-07-16 04:54:06 51°19.134 2°51.284 -999 -999 -999 -999
2007-07-16 04:54:12 51°19.155 2°51.274 -999 -999 -999 -999
2007-07-16 04:54:17 51°19.173 2°51.266 -999 -999 -999 -999
2007-07-16 04:54:22 51°19.191 2°51.257 -999 -999 -999 -999
2007-07-16 04:54:27 51°19.208 2°51.249 -999 -999 -999 -999
2007-07-16 04:54:32 51°19.226 2°51.24 -999 -999 -999 -999
2007-07-16 04:54:37 51°19.243 2°51.231 -999 -999 -999 -999
2007-07-16 04:54:42 51°19.261 2°51.222 -999 -999 -999 -999
2007-07-16 04:54:47 51°19.279 2°51.213 -999 -999 -999 -999
2007-07-16 04:54:52 51°19.296 2°51.204 -999 -999 -999 -999
2007-07-16 04:54:57 51°19.314 2°51.195 -999 -999 -999 -999
2007-07-16 04:55:02 51°19.332 2°51.186 -999 -999 -999 -999
2007-07-16 04:55:07 51°19.349 2°51.177 -999 -999 -999 -999
2007-07-16 04:55:12 51°19.367 2°51.168 -999 -999 -999 -999
2007-07-16 04:55:17 51°19.385 2°51.159 -999 -999 -999 -999
2007-07-16 04:55:22 51°19.402 2°51.15 -999 -999 -999 -999
2007-07-16 04:55:27 51°19.42 2°51.14 -999 -999 -999 -999
2007-07-16 04:55:32 51°19.437 2°51.131 -999 -999 -999 -999
2007-07-16 04:55:37 51°19.455 2°51.123 -999 -999 -999 -999
2007-07-16 04:55:42 51°19.472 2°51.114 -999 -999 -999 -999
2007-07-16 04:55:47 51°19.49 2°51.106 -999 -999 -999 -999
2007-07-16 04:55:52 51°19.507 2°51.097 -999 -999 -999 -999
2007-07-16 04:55:57 51°19.525 2°51.088 -999 -999 -999 -999
2007-07-16 04:56:02 51°19.542 2°51.078 -999 -999 -999 -999
2007-07-16 04:56:07 51°19.56 2°51.07 -999 -999 -999 -999
2007-07-16 04:56:12 51°19.578 2°51.061 -999 -999 -999 -999
2007-07-16 04:56:17 51°19.595 2°51.052 -999 -999 -999 -999
2007-07-16 04:56:22 51°19.612 2°51.042 -999 -999 -999 -999
2007-07-16 04:56:27 51°19.63 2°51.033 -999 -999 -999 -999
2007-07-16 04:56:32 51°19.647 2°51.024 -999 -999 -999 -999
2007-07-16 04:56:37 51°19.665 2°51.015 -999 -999 -999 -999
2007-07-16 04:56:42 51°19.683 2°51.006 -999 -999 -999 -999
2007-07-16 04:56:47 51°19.7 2°50.997 -999 -999 -999 -999
2007-07-16 04:56:52 51°19.718 2°50.988 -999 -999 -999 -999
2007-07-16 04:56:57 51°19.735 2°50.978 -999 -999 -999 -999
2007-07-16 04:57:02 51°19.753 2°50.969 -999 -999 -999 -999
2007-07-16 04:57:07 51°19.77 2°50.96 -999 -999 -999 -999
2007-07-16 04:57:12 51°19.788 2°50.95 -999 -999 -999 -999
2007-07-16 04:57:17 51°19.806 2°50.941 -999 -999 -999 -999
2007-07-16 04:57:22 51°19.823 2°50.932 -999 -999 -999 -999
2007-07-16 04:57:27 51°19.841 2°50.922 -999 -999 -999 -999
2007-07-16 04:57:32 51°19.858 2°50.913 -999 -999 -999 -999
2007-07-16 04:57:37 51°19.876 2°50.904 -999 -999 -999 -999
2007-07-16 04:57:42 51°19.894 2°50.894 -999 -999 -999 -999
2007-07-16 04:57:47 51°19.911 2°50.885 -999 -999 -999 -999
2007-07-16 04:57:52 51°19.929 2°50.875 -999 -999 -999 -999
2007-07-16 04:57:57 51°19.946 2°50.865 -999 -999 -999 -999
2007-07-16 04:58:02 51°19.964 2°50.856 -999 -999 -999 -999
2007-07-16 04:58:07 51°19.981 2°50.846 -999 -999 -999 -999
2007-07-16 04:58:12 51°19.999 2°50.837 -999 -999 -999 -999
2007-07-16 04:58:17 51°20.016 2°50.828 -999 -999 -999 -999
2007-07-16 04:58:22 51°20.034 2°50.819 -999 -999 -999 -999
2007-07-16 04:58:27 51°20.052 2°50.81 -999 -999 -999 -999
2007-07-16 04:58:32 51°20.069 2°50.8 -999 -999 -999 -999
2007-07-16 04:58:37 51°20.087 2°50.79 -999 -999 -999 -999
2007-07-16 04:58:42 51°20.104 2°50.781 -999 -999 -999 -999
2007-07-16 04:58:47 51°20.122 2°50.772 -999 -999 -999 -999
2007-07-16 04:58:52 51°20.139 2°50.762 -999 -999 -999 -999
2007-07-16 04:58:57 51°20.157 2°50.753 -999 -999 -999 -999
2007-07-16 04:59:02 51°20.174 2°50.743 -999 -999 -999 -999
2007-07-16 04:59:07 51°20.192 2°50.734 -999 -999 -999 -999
2007-07-16 04:59:12 51°20.209 2°50.724 -999 -999 -999 -999
2007-07-16 04:59:17 51°20.227 2°50.715 -999 -999 -999 -999
2007-07-16 04:59:22 51°20.244 2°50.706 -999 -999 -999 -999
2007-07-16 04:59:27 51°20.262 2°50.697 -999 -999 -999 -999
2007-07-16 04:59:32 51°20.28 2°50.687 -999 -999 -999 -999
2007-07-16 04:59:37 51°20.297 2°50.678 -999 -999 -999 -999
2007-07-16 04:59:42 51°20.315 2°50.669 -999 -999 -999 -999
2007-07-16 04:59:47 51°20.332 2°50.659 -999 -999 -999 -999
2007-07-16 04:59:52 51°20.35 2°50.65 -999 -999 -999 -999
2007-07-16 04:59:57 51°20.367 2°50.64 -999 -999 -999 -999
2007-07-16 05:00:02 51°20.385 2°50.631 -999 -999 -999 -999
2007-07-16 05:00:07 51°20.403 2°50.622 -999 -999 -999 -999
2007-07-16 05:00:12 51°20.42 2°50.613 -999 -999 -999 -999
2007-07-16 05:00:17 51°20.438 2°50.603 -999 -999 -999 -999
2007-07-16 05:00:22 51°20.455 2°50.594 -999 -999 -999 -999
2007-07-16 05:00:27 51°20.473 2°50.585 -999 -999 -999 -999
2007-07-16 05:00:32 51°20.491 2°50.576 -999 -999 -999 -999
2007-07-16 05:00:37 51°20.508 2°50.567 -999 -999 -999 -999
2007-07-16 05:00:42 51°20.526 2°50.558 -999 -999 -999 -999
2007-07-16 05:00:47 51°20.544 2°50.549 -999 -999 -999 -999
2007-07-16 05:00:52 51°20.562 2°50.54 -999 -999 -999 -999
2007-07-16 05:00:57 51°20.579 2°50.531 -999 -999 -999 -999
2007-07-16 05:01:02 51°20.597 2°50.522 -999 -999 -999 -999
2007-07-16 05:01:07 51°20.615 2°50.513 -999 -999 -999 -999
2007-07-16 05:01:12 51°20.632 2°50.504 -999 -999 -999 -999
2007-07-16 05:01:17 51°20.65 2°50.495 -999 -999 -999 -999
2007-07-16 05:01:22 51°20.668 2°50.485 -999 -999 -999 -999
2007-07-16 05:01:27 51°20.685 2°50.477 -999 -999 -999 -999
2007-07-16 05:01:32 51°20.703 2°50.468 -999 -999 -999 -999
2007-07-16 05:01:37 51°20.721 2°50.459 -999 -999 -999 -999
2007-07-16 05:01:42 51°20.738 2°50.45 -999 -999 -999 -999
2007-07-16 05:01:47 51°20.756 2°50.441 -999 -999 -999 -999
2007-07-16 05:01:52 51°20.773 2°50.433 -999 -999 -999 -999
2007-07-16 05:01:57 51°20.791 2°50.424 -999 -999 -999 -999
2007-07-16 05:02:02 51°20.809 2°50.415 -999 -999 -999 -999
2007-07-16 05:02:07 51°20.826 2°50.405 -999 -999 -999 -999
2007-07-16 05:02:12 51°20.844 2°50.397 -999 -999 -999 -999
2007-07-16 05:02:17 51°20.862 2°50.388 -999 -999 -999 -999
2007-07-16 05:02:22 51°20.879 2°50.379 -999 -999 -999 -999
2007-07-16 05:02:27 51°20.897 2°50.37 -999 -999 -999 -999
2007-07-16 05:02:32 51°20.915 2°50.361 -999 -999 -999 -999
2007-07-16 05:02:37 51°20.932 2°50.352 -999 -999 -999 -999
2007-07-16 05:02:42 51°20.95 2°50.343 -999 -999 -999 -999
2007-07-16 05:02:47 51°20.968 2°50.334 -999 -999 -999 -999
2007-07-16 05:02:52 51°20.985 2°50.325 -999 -999 -999 -999
2007-07-16 05:02:57 51°21.003 2°50.316 -999 -999 -999 -999
2007-07-16 05:03:02 51°21.021 2°50.307 -999 -999 -999 -999
2007-07-16 05:03:07 51°21.038 2°50.298 -999 -999 -999 -999
2007-07-16 05:03:12 51°21.056 2°50.289 -999 -999 -999 -999
2007-07-16 05:03:17 51°21.074 2°50.28 -999 -999 -999 -999
2007-07-16 05:03:22 51°21.091 2°50.271 -999 -999 -999 -999
2007-07-16 05:03:27 51°21.108 2°50.263 -999 -999 -999 -999
2007-07-16 05:03:32 51°21.126 2°50.253 -999 -999 -999 -999
2007-07-16 05:03:37 51°21.144 2°50.244 -999 -999 -999 -999
2007-07-16 05:03:42 51°21.162 2°50.236 -999 -999 -999 -999
2007-07-16 05:03:47 51°21.18 2°50.227 -999 -999 -999 -999
2007-07-16 05:03:52 51°21.197 2°50.218 -999 -999 -999 -999
2007-07-16 05:03:57 51°21.215 2°50.209 -999 -999 -999 -999
2007-07-16 05:04:02 51°21.233 2°50.201 -999 -999 -999 -999
2007-07-16 05:04:07 51°21.25 2°50.191 -999 -999 -999 -999
2007-07-16 05:04:12 51°21.268 2°50.182 -999 -999 -999 -999
2007-07-16 05:04:17 51°21.285 2°50.173 -999 -999 -999 -999
2007-07-16 05:04:22 51°21.303 2°50.164 -999 -999 -999 -999
2007-07-16 05:04:27 51°21.32 2°50.155 -999 -999 -999 -999
2007-07-16 05:04:32 51°21.338 2°50.146 -999 -999 -999 -999
2007-07-16 05:04:37 51°21.355 2°50.137 -999 -999 -999 -999
2007-07-16 05:04:42 51°21.373 2°50.128 -999 -999 -999 -999
2007-07-16 05:04:47 51°21.391 2°50.119 -999 -999 -999 -999
2007-07-16 05:04:52 51°21.408 2°50.111 -999 -999 -999 -999
2007-07-16 05:04:57 51°21.426 2°50.102 -999 -999 -999 -999
2007-07-16 05:05:02 51°21.444 2°50.093 -999 -999 -999 -999
2007-07-16 05:05:07 51°21.462 2°50.084 -999 -999 -999 -999
2007-07-16 05:05:12 51°21.479 2°50.075 -999 -999 -999 -999
2007-07-16 05:05:17 51°21.497 2°50.066 -999 -999 -999 -999
2007-07-16 05:05:22 51°21.514 2°50.057 -999 -999 -999 -999
2007-07-16 05:05:27 51°21.532 2°50.048 -999 -999 -999 -999
2007-07-16 05:05:32 51°21.55 2°50.039 -999 -999 -999 -999
2007-07-16 05:05:37 51°21.567 2°50.03 -999 -999 -999 -999
2007-07-16 05:05:42 51°21.585 2°50.021 -999 -999 -999 -999
2007-07-16 05:05:47 51°21.603 2°50.011 -999 -999 -999 -999
2007-07-16 05:05:52 51°21.621 2°50.002 -999 -999 -999 -999
2007-07-16 05:05:57 51°21.638 2°49.994 -999 -999 -999 -999
2007-07-16 05:06:02 51°21.656 2°49.985 -999 -999 -999 -999
2007-07-16 05:06:07 51°21.673 2°49.976 -999 -999 -999 -999
2007-07-16 05:06:12 51°21.691 2°49.966 -999 -999 -999 -999
2007-07-16 05:06:17 51°21.709 2°49.957 -999 -999 -999 -999
2007-07-16 05:06:22 51°21.726 2°49.948 -999 -999 -999 -999
2007-07-16 05:06:27 51°21.744 2°49.938 -999 -999 -999 -999
2007-07-16 05:06:32 51°21.761 2°49.929 -999 -999 -999 -999
2007-07-16 05:06:37 51°21.779 2°49.919 -999 -999 -999 -999
2007-07-16 05:06:42 51°21.797 2°49.91 -999 -999 -999 -999
2007-07-16 05:06:47 51°21.814 2°49.9 -999 -999 -999 -999
2007-07-16 05:06:52 51°21.831 2°49.891 -999 -999 -999 -999
2007-07-16 05:06:57 51°21.849 2°49.881 -999 -999 -999 -999
2007-07-16 05:07:02 51°21.866 2°49.872 -999 -999 -999 -999
2007-07-16 05:07:07 51°21.884 2°49.862 -999 -999 -999 -999
2007-07-16 05:07:12 51°21.901 2°49.852 -999 -999 -999 -999
2007-07-16 05:07:17 51°21.919 2°49.843 -999 -999 -999 -999
2007-07-16 05:07:22 51°21.936 2°49.833 -999 -999 -999 -999
2007-07-16 05:07:27 51°21.954 2°49.825 -999 -999 -999 -999
2007-07-16 05:07:32 51°21.971 2°49.815 -999 -999 -999 -999
2007-07-16 05:07:37 51°21.989 2°49.806 -999 -999 -999 -999
2007-07-16 05:07:42 51°22.006 2°49.797 -999 -999 -999 -999
2007-07-16 05:07:47 51°22.024 2°49.788 -999 -999 -999 -999
2007-07-16 05:07:52 51°22.041 2°49.779 -999 -999 -999 -999
2007-07-16 05:07:57 51°22.059 2°49.769 -999 -999 -999 -999
2007-07-16 05:08:02 51°22.076 2°49.76 -999 -999 -999 -999
2007-07-16 05:08:06 51°22.091 2°49.753 -999 -999 -999 -999
2007-07-16 05:08:12 51°22.112 2°49.741 -999 -999 -999 -999
2007-07-16 05:08:17 51°22.129 2°49.733 -999 -999 -999 -999
2007-07-16 05:08:22 51°22.147 2°49.723 -999 -999 -999 -999
2007-07-16 05:08:27 51°22.164 2°49.714 -999 -999 -999 -999
2007-07-16 05:08:32 51°22.182 2°49.705 -999 -999 -999 -999
2007-07-16 05:08:37 51°22.2 2°49.697 -999 -999 -999 -999
2007-07-16 05:08:42 51°22.217 2°49.687 -999 -999 -999 -999
2007-07-16 05:08:47 51°22.235 2°49.678 -999 -999 -999 -999
2007-07-16 05:08:52 51°22.252 2°49.669 -999 -999 -999 -999
2007-07-16 05:08:57 51°22.27 2°49.66 -999 -999 -999 -999
2007-07-16 05:09:02 51°22.288 2°49.65 -999 -999 -999 -999
2007-07-16 05:09:07 51°22.305 2°49.641 -999 -999 -999 -999
2007-07-16 05:09:12 51°22.323 2°49.632 -999 -999 -999 -999
2007-07-16 05:09:17 51°22.34 2°49.622 -999 -999 -999 -999
2007-07-16 05:09:22 51°22.358 2°49.613 -999 -999 -999 -999
2007-07-16 05:09:27 51°22.376 2°49.604 -999 -999 -999 -999
2007-07-16 05:09:32 51°22.393 2°49.595 -999 -999 -999 -999
2007-07-16 05:09:37 51°22.411 2°49.586 -999 -999 -999 -999
2007-07-16 05:09:42 51°22.428 2°49.577 -999 -999 -999 -999
2007-07-16 05:09:47 51°22.446 2°49.567 -999 -999 -999 -999
2007-07-16 05:09:52 51°22.463 2°49.558 -999 -999 -999 -999
2007-07-16 05:09:57 51°22.481 2°49.548 -999 -999 -999 -999
2007-07-16 05:10:02 51°22.498 2°49.539 -999 -999 -999 -999
2007-07-16 05:10:07 51°22.516 2°49.53 -999 -999 -999 -999
2007-07-16 05:10:12 51°22.534 2°49.521 -999 -999 -999 -999
2007-07-16 05:10:17 51°22.551 2°49.512 -999 -999 -999 -999
2007-07-16 05:10:22 51°22.569 2°49.503 -999 -999 -999 -999
2007-07-16 05:10:27 51°22.587 2°49.494 -999 -999 -999 -999
2007-07-16 05:10:32 51°22.604 2°49.485 -999 -999 -999 -999
2007-07-16 05:10:37 51°22.622 2°49.475 -999 -999 -999 -999
2007-07-16 05:10:42 51°22.639 2°49.466 -999 -999 -999 -999
2007-07-16 05:10:46 51°22.653 2°49.459 -999 -999 -999 -999
2007-07-16 05:10:52 51°22.674 2°49.447 -999 -999 -999 -999
2007-07-16 05:10:57 51°22.692 2°49.438 -999 -999 -999 -999
2007-07-16 05:11:02 51°22.71 2°49.429 -999 -999 -999 -999
2007-07-16 05:11:07 51°22.727 2°49.42 -999 -999 -999 -999
2007-07-16 05:11:12 51°22.745 2°49.41 -999 -999 -999 -999
2007-07-16 05:11:17 51°22.763 2°49.401 -999 -999 -999 -999
2007-07-16 05:11:22 51°22.78 2°49.392 -999 -999 -999 -999
2007-07-16 05:11:27 51°22.798 2°49.383 -999 -999 -999 -999
2007-07-16 05:11:32 51°22.815 2°49.374 -999 -999 -999 -999
2007-07-16 05:11:37 51°22.833 2°49.364 -999 -999 -999 -999
2007-07-16 05:11:42 51°22.851 2°49.355 -999 -999 -999 -999
2007-07-16 05:11:47 51°22.869 2°49.346 -999 -999 -999 -999
2007-07-16 05:11:52 51°22.886 2°49.336 -999 -999 -999 -999
2007-07-16 05:11:57 51°22.904 2°49.327 -999 -999 -999 -999
2007-07-16 05:12:02 51°22.922 2°49.318 -999 -999 -999 -999
2007-07-16 05:12:07 51°22.939 2°49.308 -999 -999 -999 -999
2007-07-16 05:12:12 51°22.957 2°49.298 -999 -999 -999 -999
2007-07-16 05:12:17 51°22.975 2°49.288 -999 -999 -999 -999
2007-07-16 05:12:22 51°22.992 2°49.278 -999 -999 -999 -999
2007-07-16 05:12:27 51°23.01 2°49.269 -999 -999 -999 -999
2007-07-16 05:12:32 51°23.028 2°49.26 -999 -999 -999 -999
2007-07-16 05:12:37 51°23.045 2°49.251 -999 -999 -999 -999
2007-07-16 05:12:42 51°23.063 2°49.242 -999 -999 -999 -999
2007-07-16 05:12:47 51°23.08 2°49.233 -999 -999 -999 -999
2007-07-16 05:12:52 51°23.098 2°49.223 -999 -999 -999 -999
2007-07-16 05:12:57 51°23.115 2°49.214 -999 -999 -999 -999
2007-07-16 05:13:02 51°23.133 2°49.205 -999 -999 -999 -999
2007-07-16 05:13:07 51°23.151 2°49.196 -999 -999 -999 -999
2007-07-16 05:13:12 51°23.169 2°49.187 -999 -999 -999 -999
2007-07-16 05:13:17 51°23.186 2°49.178 -999 -999 -999 -999
2007-07-16 05:13:22 51°23.204 2°49.169 -999 -999 -999 -999
2007-07-16 05:13:27 51°23.222 2°49.16 -999 -999 -999 -999
2007-07-16 05:13:32 51°23.239 2°49.151 -999 -999 -999 -999
2007-07-16 05:13:37 51°23.257 2°49.141 -999 -999 -999 -999
2007-07-16 05:13:42 51°23.274 2°49.131 -999 -999 -999 -999
2007-07-16 05:13:47 51°23.292 2°49.122 -999 -999 -999 -999
2007-07-16 05:13:52 51°23.309 2°49.112 -999 -999 -999 -999
2007-07-16 05:13:57 51°23.327 2°49.103 -999 -999 -999 -999
2007-07-16 05:14:02 51°23.345 2°49.094 -999 -999 -999 -999
2007-07-16 05:14:07 51°23.362 2°49.084 -999 -999 -999 -999
2007-07-16 05:14:12 51°23.38 2°49.074 -999 -999 -999 -999
2007-07-16 05:14:17 51°23.397 2°49.065 -999 -999 -999 -999
2007-07-16 05:14:22 51°23.415 2°49.056 -999 -999 -999 -999
2007-07-16 05:14:27 51°23.433 2°49.046 -999 -999 -999 -999
2007-07-16 05:14:32 51°23.45 2°49.037 -999 -999 -999 -999
2007-07-16 05:14:37 51°23.468 2°49.028 -999 -999 -999 -999
2007-07-16 05:14:42 51°23.485 2°49.019 -999 -999 -999 -999
2007-07-16 05:14:47 51°23.503 2°49.009 -999 -999 -999 -999
2007-07-16 05:14:52 51°23.52 2°48.999 -999 -999 -999 -999
2007-07-16 05:14:57 51°23.538 2°48.99 -999 -999 -999 -999
2007-07-16 05:15:02 51°23.556 2°48.98 -999 -999 -999 -999
2007-07-16 05:15:07 51°23.573 2°48.971 -999 -999 -999 -999
2007-07-16 05:15:12 51°23.591 2°48.962 -999 -999 -999 -999
2007-07-16 05:15:17 51°23.608 2°48.953 -999 -999 -999 -999
2007-07-16 05:15:22 51°23.626 2°48.944 -999 -999 -999 -999
2007-07-16 05:15:27 51°23.644 2°48.935 -999 -999 -999 -999
2007-07-16 05:15:32 51°23.661 2°48.925 -999 -999 -999 -999
2007-07-16 05:15:37 51°23.679 2°48.915 -999 -999 -999 -999
2007-07-16 05:15:42 51°23.696 2°48.906 -999 -999 -999 -999
2007-07-16 05:15:47 51°23.714 2°48.897 -999 -999 -999 -999
2007-07-16 05:15:52 51°23.731 2°48.888 -999 -999 -999 -999
2007-07-16 05:15:57 51°23.749 2°48.878 -999 -999 -999 -999
2007-07-16 05:16:02 51°23.766 2°48.869 -999 -999 -999 -999
2007-07-16 05:16:07 51°23.784 2°48.86 -999 -999 -999 -999
2007-07-16 05:16:12 51°23.802 2°48.852 -999 -999 -999 -999
2007-07-16 05:16:17 51°23.82 2°48.844 -999 -999 -999 -999
2007-07-16 05:16:22 51°23.838 2°48.837 -999 -999 -999 -999
2007-07-16 05:16:27 51°23.856 2°48.83 -999 -999 -999 -999
2007-07-16 05:16:32 51°23.874 2°48.821 -999 -999 -999 -999
2007-07-16 05:16:37 51°23.892 2°48.814 -999 -999 -999 -999
2007-07-16 05:16:42 51°23.91 2°48.807 -999 -999 -999 -999
2007-07-16 05:16:47 51°23.927 2°48.8 -999 -999 -999 -999
2007-07-16 05:16:52 51°23.945 2°48.792 -999 -999 -999 -999
2007-07-16 05:16:57 51°23.963 2°48.785 -999 -999 -999 -999
2007-07-16 05:17:02 51°23.981 2°48.778 -999 -999 -999 -999
2007-07-16 05:17:07 51°23.999 2°48.771 -999 -999 -999 -999
2007-07-16 05:17:12 51°24.017 2°48.764 -999 -999 -999 -999
2007-07-16 05:17:17 51°24.035 2°48.756 -999 -999 -999 -999
2007-07-16 05:17:22 51°24.053 2°48.75 -999 -999 -999 -999
2007-07-16 05:17:27 51°24.072 2°48.742 -999 -999 -999 -999
2007-07-16 05:17:32 51°24.09 2°48.735 -999 -999 -999 -999
2007-07-16 05:17:37 51°24.108 2°48.728 -999 -999 -999 -999
2007-07-16 05:17:42 51°24.126 2°48.72 -999 -999 -999 -999
2007-07-16 05:17:47 51°24.144 2°48.713 -999 -999 -999 -999
2007-07-16 05:17:52 51°24.162 2°48.706 -999 -999 -999 -999
2007-07-16 05:17:57 51°24.18 2°48.699 -999 -999 -999 -999
2007-07-16 05:18:02 51°24.198 2°48.691 -999 -999 -999 -999
2007-07-16 05:18:07 51°24.216 2°48.684 -999 -999 -999 -999
2007-07-16 05:18:12 51°24.233 2°48.676 -999 -999 -999 -999
2007-07-16 05:18:17 51°24.251 2°48.668 -999 -999 -999 -999
2007-07-16 05:18:22 51°24.269 2°48.66 -999 -999 -999 -999
2007-07-16 05:18:27 51°24.287 2°48.653 -999 -999 -999 -999
2007-07-16 05:18:32 51°24.305 2°48.645 -999 -999 -999 -999
2007-07-16 05:18:37 51°24.323 2°48.638 -999 -999 -999 -999
2007-07-16 05:18:42 51°24.341 2°48.63 -999 -999 -999 -999
2007-07-16 05:18:47 51°24.359 2°48.622 -999 -999 -999 -999
2007-07-16 05:18:52 51°24.377 2°48.615 -999 -999 -999 -999
2007-07-16 05:18:57 51°24.395 2°48.607 -999 -999 -999 -999
2007-07-16 05:19:02 51°24.413 2°48.6 -999 -999 -999 -999
2007-07-16 05:19:06 51°24.427 2°48.594 -999 -999 -999 -999
2007-07-16 05:19:12 51°24.449 2°48.585 -999 -999 -999 -999
2007-07-16 05:19:17 51°24.467 2°48.577 -999 -999 -999 -999
2007-07-16 05:19:22 51°24.485 2°48.569 -999 -999 -999 -999
2007-07-16 05:19:27 51°24.503 2°48.562 -999 -999 -999 -999
2007-07-16 05:19:32 51°24.521 2°48.554 -999 -999 -999 -999
2007-07-16 05:19:37 51°24.539 2°48.546 -999 -999 -999 -999
2007-07-16 05:19:42 51°24.556 2°48.538 -999 -999 -999 -999
2007-07-16 05:19:47 51°24.574 2°48.531 -999 -999 -999 -999
2007-07-16 05:19:52 51°24.592 2°48.523 -999 -999 -999 -999
2007-07-16 05:19:57 51°24.61 2°48.516 -999 -999 -999 -999
2007-07-16 05:20:02 51°24.628 2°48.509 -999 -999 -999 -999
2007-07-16 05:20:07 51°24.647 2°48.503 -999 -999 -999 -999
2007-07-16 05:20:12 51°24.665 2°48.497 -999 -999 -999 -999
2007-07-16 05:20:17 51°24.683 2°48.492 -999 -999 -999 -999
2007-07-16 05:20:22 51°24.701 2°48.487 -999 -999 -999 -999
2007-07-16 05:20:27 51°24.72 2°48.483 -999 -999 -999 -999
2007-07-16 05:20:32 51°24.738 2°48.478 -999 -999 -999 -999
2007-07-16 05:20:37 51°24.756 2°48.474 -999 -999 -999 -999
2007-07-16 05:20:42 51°24.774 2°48.47 -999 -999 -999 -999
2007-07-16 05:20:47 51°24.793 2°48.466 -999 -999 -999 -999
2007-07-16 05:20:52 51°24.811 2°48.461 -999 -999 -999 -999
2007-07-16 05:20:57 51°24.829 2°48.456 -999 -999 -999 -999
2007-07-16 05:21:02 51°24.847 2°48.452 -999 -999 -999 -999
2007-07-16 05:21:07 51°24.866 2°48.447 -999 -999 -999 -999
2007-07-16 05:21:12 51°24.884 2°48.443 -999 -999 -999 -999
2007-07-16 05:21:17 51°24.902 2°48.438 -999 -999 -999 -999
2007-07-16 05:21:22 51°24.92 2°48.434 -999 -999 -999 -999
2007-07-16 05:21:27 51°24.938 2°48.43 -999 -999 -999 -999
2007-07-16 05:21:32 51°24.956 2°48.425 -999 -999 -999 -999
2007-07-16 05:21:37 51°24.975 2°48.42 -999 -999 -999 -999
2007-07-16 05:21:42 51°24.993 2°48.416 -999 -999 -999 -999
2007-07-16 05:21:47 51°25.011 2°48.411 -999 -999 -999 -999
2007-07-16 05:21:52 51°25.029 2°48.406 -999 -999 -999 -999
2007-07-16 05:21:57 51°25.047 2°48.402 -999 -999 -999 -999
2007-07-16 05:22:02 51°25.066 2°48.397 -999 -999 -999 -999
2007-07-16 05:22:07 51°25.084 2°48.393 -999 -999 -999 -999
2007-07-16 05:22:12 51°25.102 2°48.388 -999 -999 -999 -999
2007-07-16 05:22:17 51°25.12 2°48.384 -999 -999 -999 -999
2007-07-16 05:22:22 51°25.138 2°48.38 -999 -999 -999 -999
2007-07-16 05:22:27 51°25.156 2°48.376 -999 -999 -999 -999
2007-07-16 05:22:32 51°25.174 2°48.372 -999 -999 -999 -999
2007-07-16 05:22:37 51°25.191 2°48.367 -999 -999 -999 -999
2007-07-16 05:22:42 51°25.208 2°48.363 -999 -999 -999 -999
2007-07-16 05:22:47 51°25.225 2°48.359 -999 -999 -999 -999
2007-07-16 05:22:52 51°25.242 2°48.356 -999 -999 -999 -999
2007-07-16 05:22:57 51°25.258 2°48.351 -999 -999 -999 -999
2007-07-16 05:23:02 51°25.275 2°48.347 -999 -999 -999 -999
2007-07-16 05:23:07 51°25.291 2°48.343 -999 -999 -999 -999
2007-07-16 05:23:12 51°25.308 2°48.339 -999 -999 -999 -999
2007-07-16 05:23:17 51°25.324 2°48.335 -999 -999 -999 -999
2007-07-16 05:23:22 51°25.341 2°48.33 -999 -999 -999 -999
2007-07-16 05:23:27 51°25.357 2°48.326 -999 -999 -999 -999
2007-07-16 05:23:32 51°25.374 2°48.321 -999 -999 -999 -999
2007-07-16 05:23:37 51°25.39 2°48.317 -999 -999 -999 -999
2007-07-16 05:23:42 51°25.407 2°48.313 -999 -999 -999 -999
2007-07-16 05:23:47 51°25.423 2°48.309 -999 -999 -999 -999
2007-07-16 05:23:52 51°25.44 2°48.305 -999 -999 -999 -999
2007-07-16 05:23:57 51°25.456 2°48.302 -999 -999 -999 -999
2007-07-16 05:24:02 51°25.473 2°48.298 -999 -999 -999 -999
2007-07-16 05:24:07 51°25.489 2°48.295 -999 -999 -999 -999
2007-07-16 05:24:12 51°25.506 2°48.291 -999 -999 -999 -999
2007-07-16 05:24:17 51°25.522 2°48.288 -999 -999 -999 -999
2007-07-16 05:24:22 51°25.539 2°48.285 -999 -999 -999 -999
2007-07-16 05:24:27 51°25.555 2°48.282 -999 -999 -999 -999
2007-07-16 05:24:32 51°25.571 2°48.279 -999 -999 -999 -999
2007-07-16 05:24:37 51°25.587 2°48.276 -999 -999 -999 -999
2007-07-16 05:24:42 51°25.603 2°48.273 -999 -999 -999 -999
2007-07-16 05:24:47 51°25.619 2°48.271 -999 -999 -999 -999
2007-07-16 05:24:52 51°25.635 2°48.272 -999 -999 -999 -999
2007-07-16 05:24:57 51°25.65 2°48.274 -999 -999 -999 -999
2007-07-16 05:25:02 51°25.665 2°48.279 -999 -999 -999 -999
2007-07-16 05:25:07 51°25.68 2°48.285 -999 -999 -999 -999
2007-07-16 05:25:12 51°25.693 2°48.292 -999 -999 -999 -999
2007-07-16 05:25:17 51°25.705 2°48.299 -999 -999 -999 -999
2007-07-16 05:25:22 51°25.717 2°48.306 -999 -999 -999 -999
2007-07-16 05:25:27 51°25.728 2°48.314 -999 -999 -999 -999
2007-07-16 05:25:32 51°25.739 2°48.321 -999 -999 -999 -999
2007-07-16 05:25:37 51°25.749 2°48.328 -999 -999 -999 -999
2007-07-16 05:25:42 51°25.759 2°48.335 -999 -999 -999 -999
2007-07-16 05:25:47 51°25.769 2°48.341 -999 -999 -999 -999
2007-07-16 05:25:52 51°25.778 2°48.347 -999 -999 -999 -999
2007-07-16 05:25:57 51°25.788 2°48.351 -999 -999 -999 -999
2007-07-16 05:26:02 51°25.797 2°48.356 -999 -999 -999 -999
2007-07-16 05:26:07 51°25.806 2°48.36 -999 -999 -999 -999
2007-07-16 05:26:12 51°25.815 2°48.363 -999 -999 -999 -999
2007-07-16 05:26:17 51°25.824 2°48.366 -999 -999 -999 -999
2007-07-16 05:26:22 51°25.833 2°48.37 -999 -999 -999 -999
2007-07-16 05:26:27 51°25.841 2°48.372 -999 -999 -999 -999
2007-07-16 05:26:32 51°25.849 2°48.375 -999 -999 -999 -999
2007-07-16 05:26:37 51°25.857 2°48.378 -999 -999 -999 -999
2007-07-16 05:26:42 51°25.865 2°48.381 -999 -999 -999 -999
2007-07-16 05:26:47 51°25.872 2°48.385 -999 -999 -999 -999
2007-07-16 05:26:52 51°25.878 2°48.389 -999 -999 -999 -999
2007-07-16 05:26:57 51°25.884 2°48.393 -999 -999 -999 -999
2007-07-16 05:27:02 51°25.89 2°48.397 -999 -999 -999 -999
2007-07-16 05:27:07 51°25.895 2°48.402 -999 -999 -999 -999
2007-07-16 05:27:12 51°25.9 2°48.407 -999 -999 -999 -999
2007-07-16 05:27:17 51°25.906 2°48.412 -999 -999 -999 -999
2007-07-16 05:27:22 51°25.911 2°48.418 -999 -999 -999 -999
2007-07-16 05:27:27 51°25.916 2°48.423 -999 -999 -999 -999
2007-07-16 05:27:32 51°25.922 2°48.429 -999 -999 -999 -999
2007-07-16 05:27:37 51°25.928 2°48.435 -999 -999 -999 -999
2007-07-16 05:27:42 51°25.934 2°48.441 -999 -999 -999 -999
2007-07-16 05:27:47 51°25.94 2°48.447 -999 -999 -999 -999
2007-07-16 05:27:52 51°25.947 2°48.452 -999 -999 -999 -999
2007-07-16 05:27:57 51°25.954 2°48.457 -999 -999 -999 -999
2007-07-16 05:28:02 51°25.961 2°48.462 -999 -999 -999 -999
2007-07-16 05:28:07 51°25.968 2°48.466 -999 -999 -999 -999
2007-07-16 05:28:12 51°25.975 2°48.471 -999 -999 -999 -999
2007-07-16 05:28:17 51°25.982 2°48.475 -999 -999 -999 -999
2007-07-16 05:28:22 51°25.988 2°48.48 -999 -999 -999 -999
2007-07-16 05:28:27 51°25.994 2°48.485 -999 -999 -999 -999
2007-07-16 05:28:32 51°26 2°48.489 -999 -999 -999 -999
2007-07-16 05:28:37 51°26.005 2°48.494 -999 -999 -999 -999
2007-07-16 05:28:42 51°26.009 2°48.498 -999 -999 -999 -999
2007-07-16 05:28:47 51°26.013 2°48.501 -999 -999 -999 -999
2007-07-16 05:28:52 51°26.017 2°48.505 -999 -999 -999 -999
2007-07-16 05:28:57 51°26.02 2°48.508 -999 -999 -999 -999
2007-07-16 05:29:02 51°26.022 2°48.51 -999 -999 -999 -999
2007-07-16 05:29:07 51°26.024 2°48.512 -999 -999 -999 -999
2007-07-16 05:29:12 51°26.026 2°48.513 -999 -999 -999 -999
2007-07-16 05:29:17 51°26.027 2°48.513 -999 -999 -999 -999
2007-07-16 05:29:22 51°26.028 2°48.512 -999 -999 -999 -999
2007-07-16 05:29:27 51°26.029 2°48.512 -999 -999 -999 -999
2007-07-16 05:29:32 51°26.03 2°48.511 -999 -999 -999 -999
2007-07-16 05:29:37 51°26.031 2°48.511 -999 -999 -999 -999
2007-07-16 05:29:42 51°26.032 2°48.51 -999 -999 -999 -999
2007-07-16 05:29:47 51°26.033 2°48.51 -999 -999 -999 -999
2007-07-16 05:29:52 51°26.034 2°48.51 -999 -999 -999 -999
2007-07-16 05:29:57 51°26.034 2°48.509 -999 -999 -999 -999
2007-07-16 05:30:02 51°26.036 2°48.509 -999 -999 -999 -999
2007-07-16 05:30:07 51°26.037 2°48.508 -999 -999 -999 -999
2007-07-16 05:30:12 51°26.037 2°48.508 -999 -999 -999 -999
2007-07-16 05:30:17 51°26.039 2°48.507 -999 -999 -999 -999
2007-07-16 05:30:22 51°26.04 2°48.507 -999 -999 -999 -999
2007-07-16 05:30:27 51°26.041 2°48.507 -999 -999 -999 -999
2007-07-16 05:30:32 51°26.042 2°48.507 -999 -999 -999 -999
2007-07-16 05:30:38 51°26.043 2°48.506 -999 -999 -999 -999
2007-07-16 05:30:43 51°26.044 2°48.505 -999 -999 -999 -999
2007-07-16 05:30:49 51°26.045 2°48.504 -999 -999 -999 -999
2007-07-16 05:30:54 51°26.047 2°48.503 -999 -999 -999 -999
2007-07-16 05:30:58 51°26.048 2°48.502 -999 -999 -999 -999
2007-07-16 05:31:03 51°26.049 2°48.501 -999 -999 -999 -999
2007-07-16 05:31:08 51°26.05 2°48.499 -999 -999 -999 -999
2007-07-16 05:31:13 51°26.051 2°48.498 -999 -999 -999 -999
2007-07-16 05:31:18 51°26.052 2°48.496 -999 -999 -999 -999
2007-07-16 05:31:23 51°26.053 2°48.494 -999 -999 -999 -999
2007-07-16 05:31:27 51°26.054 2°48.493 -999 -999 -999 -999
2007-07-16 05:31:32 51°26.055 2°48.491 -999 -999 -999 -999
2007-07-16 05:31:38 51°26.057 2°48.489 -999 -999 -999 -999
2007-07-16 05:31:42 51°26.058 2°48.488 -999 -999 -999 -999
2007-07-16 05:31:47 51°26.059 2°48.486 -999 -999 -999 -999
2007-07-16 05:31:52 51°26.06 2°48.485 -999 -999 -999 -999
2007-07-16 05:31:57 51°26.061 2°48.483 -999 -999 -999 -999
2007-07-16 05:32:02 51°26.062 2°48.482 -999 -999 -999 -999
2007-07-16 05:32:07 51°26.064 2°48.481 -999 -999 -999 -999
2007-07-16 05:32:12 51°26.065 2°48.48 -999 -999 -999 -999
2007-07-16 05:32:17 51°26.066 2°48.479 -999 -999 -999 -999
2007-07-16 05:32:22 51°26.067 2°48.477 -999 -999 -999 -999
2007-07-16 05:32:27 51°26.068 2°48.477 -999 -999 -999 -999
2007-07-16 05:32:32 51°26.069 2°48.476 -999 -999 -999 -999
2007-07-16 05:32:37 51°26.07 2°48.475 -999 -999 -999 -999
2007-07-16 05:32:42 51°26.071 2°48.474 -999 -999 -999 -999
2007-07-16 05:32:47 51°26.072 2°48.474 -999 -999 -999 -999
2007-07-16 05:32:52 51°26.073 2°48.473 -999 -999 -999 -999
2007-07-16 05:32:57 51°26.073 2°48.473 -999 -999 -999 -999
2007-07-16 05:33:02 51°26.074 2°48.473 -999 -999 -999 -999
2007-07-16 05:33:07 51°26.075 2°48.473 -999 -999 -999 -999
2007-07-16 05:33:12 51°26.076 2°48.473 -999 -999 -999 -999
2007-07-16 05:33:17 51°26.076 2°48.473 -999 -999 -999 -999
2007-07-16 05:33:22 51°26.077 2°48.473 -999 -999 -999 -999
2007-07-16 05:33:27 51°26.077 2°48.473 -999 -999 -999 -999
2007-07-16 05:33:32 51°26.078 2°48.473 -999 -999 -999 -999
2007-07-16 05:33:37 51°26.078 2°48.474 -999 -999 -999 -999
2007-07-16 05:33:42 51°26.079 2°48.474 -999 -999 -999 -999
2007-07-16 05:33:47 51°26.079 2°48.475 -999 -999 -999 -999
2007-07-16 05:33:52 51°26.079 2°48.475 -999 -999 -999 -999
2007-07-16 05:33:57 51°26.08 2°48.476 -999 -999 -999 -999
2007-07-16 05:34:02 51°26.08 2°48.477 -999 -999 -999 -999
2007-07-16 05:34:07 51°26.081 2°48.478 -999 -999 -999 -999
2007-07-16 05:34:12 51°26.081 2°48.479 -999 -999 -999 -999
2007-07-16 05:34:17 51°26.081 2°48.479 -999 -999 -999 -999
2007-07-16 05:34:22 51°26.081 2°48.48 -999 -999 -999 -999
2007-07-16 05:34:27 51°26.082 2°48.482 -999 -999 -999 -999
2007-07-16 05:34:32 51°26.082 2°48.483 -999 -999 -999 -999
2007-07-16 05:34:37 51°26.082 2°48.484 -999 -999 -999 -999
2007-07-16 05:34:42 51°26.082 2°48.485 -999 -999 -999 -999
2007-07-16 05:34:47 51°26.082 2°48.486 -999 -999 -999 -999
2007-07-16 05:34:52 51°26.082 2°48.487 -999 -999 -999 -999
2007-07-16 05:34:57 51°26.082 2°48.488 -999 -999 -999 -999
2007-07-16 05:35:02 51°26.082 2°48.49 -999 -999 -999 -999
2007-07-16 05:35:07 51°26.082 2°48.491 -999 -999 -999 -999
2007-07-16 05:35:12 51°26.082 2°48.492 -999 -999 -999 -999
2007-07-16 05:35:17 51°26.082 2°48.493 -999 -999 -999 -999
2007-07-16 05:35:22 51°26.082 2°48.494 -999 -999 -999 -999
2007-07-16 05:35:27 51°26.082 2°48.495 -999 -999 -999 -999
2007-07-16 05:35:32 51°26.082 2°48.496 -999 -999 -999 -999
2007-07-16 05:35:37 51°26.082 2°48.496 -999 -999 -999 -999
2007-07-16 05:35:42 51°26.082 2°48.498 -999 -999 -999 -999
2007-07-16 05:35:47 51°26.082 2°48.498 -999 -999 -999 -999
2007-07-16 05:35:52 51°26.082 2°48.499 -999 -999 -999 -999
2007-07-16 05:35:57 51°26.082 2°48.5 -999 -999 -999 -999
2007-07-16 05:36:02 51°26.082 2°48.501 -999 -999 -999 -999
2007-07-16 05:36:07 51°26.082 2°48.501 -999 -999 -999 -999
2007-07-16 05:36:12 51°26.082 2°48.502 -999 -999 -999 -999
2007-07-16 05:36:17 51°26.082 2°48.503 -999 -999 -999 -999
2007-07-16 05:36:22 51°26.082 2°48.503 -999 -999 -999 -999
2007-07-16 05:36:27 51°26.082 2°48.504 -999 -999 -999 -999
2007-07-16 05:36:32 51°26.082 2°48.504 -999 -999 -999 -999
2007-07-16 05:36:37 51°26.082 2°48.505 -999 -999 -999 -999
2007-07-16 05:36:42 51°26.082 2°48.505 -999 -999 -999 -999
2007-07-16 05:36:47 51°26.082 2°48.506 -999 -999 -999 -999
2007-07-16 05:36:52 51°26.082 2°48.506 -999 -999 -999 -999
2007-07-16 05:36:57 51°26.082 2°48.506 -999 -999 -999 -999
2007-07-16 05:37:02 51°26.082 2°48.507 -999 -999 -999 -999
2007-07-16 05:37:07 51°26.082 2°48.507 -999 -999 -999 -999
2007-07-16 05:37:12 51°26.082 2°48.507 -999 -999 -999 -999
2007-07-16 05:37:17 51°26.082 2°48.508 -999 -999 -999 -999
2007-07-16 05:37:22 51°26.082 2°48.508 -999 -999 -999 -999
2007-07-16 05:37:27 51°26.082 2°48.508 -999 -999 -999 -999
2007-07-16 05:37:32 51°26.082 2°48.509 -999 -999 -999 -999
2007-07-16 05:37:37 51°26.082 2°48.509 -999 -999 -999 -999
2007-07-16 05:37:42 51°26.082 2°48.509 -999 -999 -999 -999
2007-07-16 05:37:47 51°26.082 2°48.51 -999 -999 -999 -999
2007-07-16 05:37:52 51°26.082 2°48.51 -999 -999 -999 -999
2007-07-16 05:37:57 51°26.082 2°48.51 -999 -999 -999 -999
2007-07-16 05:38:02 51°26.082 2°48.51 -999 -999 -999 -999
2007-07-16 05:38:07 51°26.082 2°48.511 -999 -999 -999 -999
2007-07-16 05:38:12 51°26.082 2°48.511 -999 -999 -999 -999
2007-07-16 05:38:17 51°26.082 2°48.511 -999 -999 -999 -999
2007-07-16 05:38:22 51°26.082 2°48.512 -999 -999 -999 -999
2007-07-16 05:38:27 51°26.082 2°48.512 -999 -999 -999 -999
2007-07-16 05:38:32 51°26.082 2°48.512 -999 -999 -999 -999
2007-07-16 05:38:37 51°26.082 2°48.512 -999 -999 -999 -999
2007-07-16 05:38:42 51°26.082 2°48.512 -999 -999 -999 -999
2007-07-16 05:38:47 51°26.082 2°48.512 -999 -999 -999 -999
2007-07-16 05:38:52 51°26.082 2°48.512 -999 -999 -999 -999
2007-07-16 05:38:57 51°26.082 2°48.512 -999 -999 -999 -999
2007-07-16 05:39:02 51°26.082 2°48.512 -999 -999 -999 -999
2007-07-16 05:39:07 51°26.082 2°48.512 -999 -999 -999 -999
2007-07-16 05:39:12 51°26.082 2°48.512 -999 -999 -999 -999
2007-07-16 05:39:17 51°26.082 2°48.512 -999 -999 -999 -999
2007-07-16 05:39:22 51°26.081 2°48.512 -999 -999 -999 -999
2007-07-16 05:39:27 51°26.081 2°48.512 -999 -999 -999 -999
2007-07-16 05:39:32 51°26.081 2°48.512 -999 -999 -999 -999
2007-07-16 05:39:37 51°26.081 2°48.512 -999 -999 -999 -999
2007-07-16 05:39:42 51°26.081 2°48.512 -999 -999 -999 -999
2007-07-16 05:39:47 51°26.081 2°48.512 -999 -999 -999 -999
2007-07-16 05:39:52 51°26.081 2°48.512 -999 -999 -999 -999
2007-07-16 05:39:57 51°26.081 2°48.512 -999 -999 -999 -999
2007-07-16 05:40:02 51°26.081 2°48.512 -999 -999 -999 -999
2007-07-16 05:40:07 51°26.081 2°48.512 -999 -999 -999 -999
2007-07-16 05:40:12 51°26.081 2°48.512 -999 -999 -999 -999
2007-07-16 05:40:17 51°26.081 2°48.512 -999 -999 -999 -999
2007-07-16 05:40:22 51°26.081 2°48.511 -999 -999 -999 -999
2007-07-16 05:40:27 51°26.081 2°48.512 -999 -999 -999 -999